Tracking 34094 objects as of 10-May-2026
HD Live streaming from Space Station
objects crossing your sky now

WESTFORD NEEDLES

Track WESTFORD NEEDLES now!
10-day predictions
WESTFORD NEEDLES is classified as:


NORAD ID: 2377
Int'l Code: 1963-014X
Perigee: 3,146.3 km
Apogee: 4,103.8 km
Inclination: 87.4 °
Period: 165.8 minutes
Semi major axis: 9996 km
RCS: 0.1884 m2 (medium)
Launch date: May 9, 1963
Source: United States (US)
Launch site: AIR FORCE WESTERN TEST RANGE (AFWTR)
Your satellite tracking list
Your tracking list is empty




NASA's NSSDC Master Catalog

Two Line Element Set (TLE):
1 02377U 63014X   26118.56645335 -.00000039  00000-0 -16618-1 0  9995
2 02377  87.3914 168.7658 0478939 327.1417  30.0490  8.68684721921692
Source of the keplerian elements: AFSPC